Starlink 2564

operational
NORAD ID: 48284 Int'l Des: 2021-036 Owner: SPXS Country: US Constellation: starlink
LEOCIRCULARSTARLINK_TYPE

Über Starlink 2564

Beschreibung wird geladen...

Live-Position

3D-Globus wird geladen...

Nächste Überflüge

Höhenverlauf

Altitude vs Time

uPlot chart will show altitude changes over time

Zweizeiliger Elementsatz

1 48284U 21036J 26035.16668981 .01760679 00000-0 61748-1 0 9992
2 48284 53.1412 231.3957 0001891 104.9080 346.7185 15.25995024 5736
Epoch: 4. Feb. 2026 • Age: 5 hours

Aktueller Status

Höhe 485.3 km
Geschwindigkeit 7.63 km/s
Subsatellitenpunkt 15.62°N, 128.63°E
Startdatum 29. Apr. 2021
Alter 4.7 years
Typ internet

Technische Details

Klassifizierung Payload
Masse 260.00 kg
Trockenmasse 248.00 kg
Gesamtmasse 260.00 kg
Länge 0.20 m
Durchmesser 2.80 m
Spannweite 9.00 m
Form Box + pan
Hersteller SPXS
Bus-Typ Starlink
Phasenstatus In Orbit
Besitzer/Staat SPXS/US

Große Konstellationen

Loading constellations...